This is the latest recevied weather packets stored in our database for station/object W8BS. If no packets are shown the sender has not sent any weather packets the latest 10 day(s).
| Time | Temp. | Humidity | Pressure | Rain* | Wind** | Luminosity | Snow |
|---|---|---|---|---|---|---|---|
| 1777755840 | 8.89° C | 52% | 1012.3 hPa | 0 mm | - | 223 W/m² | - |
| 1777755537 | 8.33° C | 52% | 1012.4 hPa | 0 mm | - | 259 W/m² | - |
| 1777755233 | 8.33° C | 50% | 1012.5 hPa | 0 mm | - | 157 W/m² | - |
| 1777754931 | 8.89° C | 50% | 1012.3 hPa | 0 mm | - | 156 W/m² | - |
| 1777754628 | 8.89° C | 51% | 1012.2 hPa | 0 mm | - | 182 W/m² | - |
| 1777754325 | 8.89° C | 52% | 1012.5 hPa | 0 mm | - | 313 W/m² | - |
| 1777754023 | 8.33° C | 52% | 1012.6 hPa | 0 mm | - | 228 W/m² | - |
| 1777753718 | 8.33° C | 52% | 1012.6 hPa | 0 mm | - | 192 W/m² | - |
| 1777753416 | 8.33° C | 51% | 1012.7 hPa | 0 mm | - | 163 W/m² | - |
| 1777753114 | 8.89° C | 51% | 1012.6 hPa | 0 mm | - | 186 W/m² | - |
| 1777752809 | 8.33° C | 50% | 1012.5 hPa | 0 mm | - | 203 W/m² | - |
| 1777752506 | 8.33° C | 50% | 1012.7 hPa | 0 mm | - | 224 W/m² | - |
| 1777752201 | 8.33° C | 50% | 1012.8 hPa | 0 mm | - | 200 W/m² | - |
| 1777751900 | 8.89° C | 50% | 1012.7 hPa | 0 mm | - | 231 W/m² | - |
| 1777751596 | 8.89° C | 49% | 1012.6 hPa | 0 mm | - | 211 W/m² | - |
| 1777751293 | 8.89° C | 48% | 1012.7 hPa | 0 mm | - | 467 W/m² | - |
| 1777750990 | 8.89° C | 49% | 1012.8 hPa | 0 mm | - | 197 W/m² | - |
| 1777750686 | 8.89° C | 49% | 1012.8 hPa | 0 mm | - | 139 W/m² | - |
| 1777750383 | 8.89° C | 48% | 1012.9 hPa | 0 mm | - | 142 W/m² | - |
| 1777750078 | 8.89° C | 48% | 1012.7 hPa | 0 mm | - | 198 W/m² | - |
| 1777749776 | 8.89° C | 50% | 1012.9 hPa | 0 mm | - | 276 W/m² | - |
| 1777749473 | 8.89° C | 49% | 1013 hPa | 0 mm | - | 246 W/m² | - |
| 1777749170 | 8.33° C | 50% | 1012.8 hPa | 0 mm | - | 269 W/m² | - |
| 1777748867 | 8.89° C | 50% | 1013 hPa | 0 mm | - | 261 W/m² | - |
| 1777748565 | 8.33° C | 50% | 1012.9 hPa | 0 mm | - | 228 W/m² | - |
* Rain latest hour (hover to see other rain measurements)
** Current wind speed in m/s (hover to see current wind gust speed)